Location: *
(58.7167°N, 26.1833°E)
Time: 14:33:17
(UTC+00:00)

ERBS - Pass Details

Date: 25 August 2019
Orbit: 418 x 425 km, 57.0° (Epoch: 19 September)

Event Time Altitude Azimuth Distance (km) Brightness Sun altitude
Exits shadow 23:21:30 34° 113° (ESE) 725 3.3 -19.5°
Drops below altitude 10° 23:23:45 10° 87° (E) 1,515 5.3 -19.4°
Sets 23:25:53 0° 81° (E) 2,380 6.4 -19.3°
